This is the latest recevied weather packets stored in our database for station/object VE9LJW. If no packets are shown the sender has not sent any weather packets the latest 10 day(s).
| Time | Temp. | Humidity | Pressure | Rain* | Wind** | Luminosity | Snow |
|---|---|---|---|---|---|---|---|
| 1777667533 | 15.56° C | 88% | 1002.3 hPa | 0 mm | - | 137 W/m² | - |
| 1777667230 | 15.56° C | 86% | 1002.1 hPa | 0 mm | - | 139 W/m² | - |
| 1777666927 | 15.56° C | 88% | 1002.1 hPa | 0 mm | - | 141 W/m² | - |
| 1777666624 | 16.11° C | 89% | 1001.7 hPa | 0 mm | - | 105 W/m² | - |
| 1777666320 | 16.11° C | 88% | 1001.9 hPa | 0 mm | - | 127 W/m² | - |
| 1777666017 | 15.56° C | 90% | 1001.7 hPa | 0 mm | - | 184 W/m² | - |
| 1777665715 | 15.56° C | 89% | 1001.7 hPa | 0 mm | - | 199 W/m² | - |
| 1777665412 | 15.56° C | 90% | 1001.8 hPa | 0 mm | - | 177 W/m² | - |
| 1777665108 | 15.56° C | 90% | 1001.8 hPa | 0 mm | - | 174 W/m² | - |
| 1777664803 | 15° C | 93% | 1001.6 hPa | 0 mm | - | 187 W/m² | - |
| 1777664499 | 15.56° C | 93% | 1001.9 hPa | 0 mm | - | 132 W/m² | - |
| 1777664196 | 15.56° C | 93% | 1001.7 hPa | 0 mm | - | 158 W/m² | - |
| 1777663895 | 15.56° C | 94% | 1001.6 hPa | 0 mm | - | 180 W/m² | - |
| 1777663592 | 15.56° C | 93% | 1001.5 hPa | 0 mm | - | 215 W/m² | - |
| 1777663289 | 15.56° C | 93% | 1001.7 hPa | 0 mm | - | 223 W/m² | - |
| 1777662986 | 15.56° C | 94% | 1001.7 hPa | 0 mm | - | 239 W/m² | - |
| 1777662683 | 15.56° C | 95% | 1001.6 hPa | 0 mm | - | 322 W/m² | - |
| 1777662380 | 15.56° C | 98% | 1001.7 hPa | 0 mm | - | 283 W/m² | - |
| 1777662075 | 15.56° C | 99% | 1001.6 hPa | 0 mm | - | 165 W/m² | - |
| 1777661771 | 15° C | 99% | 1001.7 hPa | 0 mm | - | 324 W/m² | - |
| 1777661467 | 14.44° C | 99% | 1001.5 hPa | 0 mm | - | 229 W/m² | - |
| 1777661163 | 14.44° C | 99% | 1001.5 hPa | 0.51 mm | - | 203 W/m² | - |
| 1777660858 | 14.44° C | 99% | 1001.7 hPa | 1.78 mm | - | 276 W/m² | - |
| 1777660555 | 14.44° C | 97% | 1001.6 hPa | 0.51 mm | - | 206 W/m² | - |
| 1777660252 | 15.56° C | 95% | 1001.3 hPa | 0 mm | - | 103 W/m² | - |
* Rain latest hour (hover to see other rain measurements)
** Current wind speed in m/s (hover to see current wind gust speed)